Probability
0 0 0 0 0 0 0 0 0 0 0 0 0 0 0 0 0 0 0 0 0 0 0 0 0 0 0 0 0 0 0 0 0 0 0 0 0 0 0 0 0 0 0 0
0 0 0 0 0 0 0 0 0 0 0 0 0 0 0 0 0 0 0 0 0 0 0 0 0 0 0 0 0 0 0 0 0 0 0 0 0 0 0 0 0 0 0 0
0 0 0 0 0 0 0 0 0 0 0 0 0 0 0 0 0 0 0 0 0 0 0 0 0 0 0 0 0 0 0 0 0 0 0 0 0 0 0 0 0 0 0 0
0 0 0 0 0 0 0 0 0 0 0 0 0 0 0 0 0 0 0 0 0 0 0 0 0 0 0 0 0 0 0 0 0 0 0 0 0 0 0 0 0 0 0 0
0 0 0 0 0 0 0 0 0 0 0 0 0 0 0 0 0 0 0 0 0 0 0 0 0 0 0 0 0 0 0 0 0 0 0 0 0 0 0 0 0 0 0 0
0 0 0 0 0 0 0 0 0 0 0 0 0 0 0 0 0 0 0 0 0 0 0 0 0 0 0 0 0 0 0 0 0 0 0 0 0 0 0 0 0 0 0 0
0 0 0 0 0 0 0 0 0 0 0 0 0 0 0 0 0 0 0 0 0 0 0 0 0 0 0 0 0 0 0 0 0 0 0 0 0 0 0 0 0 0 0 0
0 0 0 0 0 0 0 0 0 0 0 0 0 0 0 0 0 0 0 0 0 0 0 0 0 0 0 0 0 0 0 0 0 0 0 0 0 0 0 0 0 0 0 0
0 0 0 0 0 0 0 0 0 0 0 0 0 0 0 0 0 0 0 0 0 0 0 0 0 0 0 0 0 0 0 0 0 0 0 0 0 0 0 0 0 0 0 0
0 0 0 0 0 0 0 0 0 0 0 0 0 0 0 0 0 0 0 0 0 0 0 0 0 0 0 0 0 0 0 0 0 0 0 0 0 0 0 0 0 0 0 0
0 0 0 0 0 0 0 0 0 0 0 0 0 0 0 0 0 0 0 0 0 0 0 0 0 0 0 0 0 0 0 0 0 0 0 0 0 0 0 0 0 0 0 0
0 0 0 0 0 0 0 0 0 0 0 0 0 0 0 0 0 0 0 0 0 0 0 0 0 0 0 0 0 0 0 0 0 0 0 0 0 0 0 0 0 0 0 0
0 0 0 0 0 0 0 0 0 0 0 0 0 0 0 0 0 0 0 0 0 0 0 0 0 0 0 0 0 0 0 0 0 0 0 0 0 0 0 0 0 0 0 0
0 0 0 0 0 0 0 0 0 0 0 0 0 0 0 0 0 0 0 0 0 0 0 0 0 0 0 0 0 0 0 0 0 0 0 0 0 0 0 0 0 0 0 0
0 0 0 0 0 0 0 0 0 0 0 0 0 0 0 0 0 0 0 0 0 0 0 0 0 0 0 0 0 0 0 0 0 0 0 0 0 0 0 0 0 0 0 0
0 0 0 0 0 0 0 0 0 0 0 0 0 0 0 0 0 0 0 0 0 0 0 0 0 0 0 0 0 0 0 0 0 0 0 0 0 0 0 0 0 0 0 0
0 0 0 0 0 0 0 0 0 0 0 0 0 0 0 0 0 0 0 0 0 0 0 0 0 0 0 0 0 0 0 0 0 0 0 0 0 0 0 0 0 0 0 0
0 0 0 0 0 0 0 0 0 0 0 0 0 0 0 0 0 0 0 0 0 0 0 0 0 0 0 0 0 0 0 0 0 0 0 0 0 0 0 0 0 0 0 0
0 0 0 0 0 0 0 0 0 0 0 0 0 0 0 0 0 0 0 0 0 0 0 0 0 0 0 0 0 0 0 0 0 0 0 0 0 0 0 0 0 0 0 0
0 0 0 0 0 0 0 0 0 0 0 0 0 0 0 0 0 0 0 0 0 0 0 0 0 0 0 0 0 0 0 0 0 0 0 0 0 0 0 0 0 0 0 0
0 0 0 0 0 0 0 0 0 0 0 0 0 0 0 0 0 0 0 0 0 0 0 0 0 0 0 0 0 0 0 0 0 0 0 0 0 0 0 0 0 0 0 0
0 0 0 0 0 0 0 0 0 0 0 0 0 0 0 0 0 0 0 0 0 0 0 0 0 0 0 0 0 0 0 0 0 0 0 0 0 0 0 0 0 0 0 0
0 0 0 0 0 0 0 0 0 0 0 0 0 0 0 0 0 0 0 0 0 0 0 0 0 0 0 0 0 0 0 0 0 0 0 0 0 0 0 0 0 0 0 0
0 0 0 0 0 0 0 0 0 0 0 0 0 0 0 0 0 0 0 0 0 0 0 0 0 0 0 0 0 0 0 0 0 0 0 0 0 0 0 0 0 0 0 0
0 0 0 0 0 0 0 0 0 0 0 0 0 0 0 0 0 0 0 0 0 0 0 0 0 0 0 0 0 0 0 0 0 0 0 0 0 0 0 0 0 0 0 0
0 0 0 0 0 0 0 0 0 0 0 0 0 0 0 0 0 0 0 0 0 0 0 0 0 0 0 0 0 0 0 0 0 0 0 0 0 0 0 0 0 0 0 0
0 0 0 0 0 0 0 0 0 0 0 0 0 0 0 0 0 0 0 0 0 0 0 0 0 0 0 0 0 0 0 0 0 0 0 0 0 0 0 0 0 0 0 0
Wind_Speed
13 14 13 13 13 12 12 10 10 12 13 11 9 8 4 1 2 1 2 4 4 4 4 5 5 6 8 9 10 10 11 11 11 11 11 11 11 11 10 10 10 11 11 10
12 13 13 16 15 15 15 15 15 15 15 9 8 7 4 1 0 0 1 2 3 4 5 5 6 6 6 7 9 10 11 10 10 10 10 11 11 11 11 10 10 10 11 11
9 11 11 13 13 15 14 13 13 14 11 6 6 6 3 1 1 1 1 1 3 4 5 6 6 6 7 7 8 10 10 10 10 11 11 11 11 11 11 11 10 10 10 10
6 6 10 8 6 9 11 11 10 10 8 6 8 7 3 0 0 2 1 2 2 3 4 4 4 5 6 7 8 9 10 10 10 11 11 11 11 11 11 10 10 10 10 10
4 6 10 9 7 8 9 9 6 8 8 6 7 6 3 2 2 3 3 2 3 3 4 5 6 6 6 7 8 9 10 11 11 11 12 12 12 12 10 10 9 9 9 10
6 7 8 5 5 6 6 7 3 5 6 5 5 3 5 5 5 4 3 2 1 1 3 5 6 7 7 8 9 10 10 10 10 11 12 12 12 11 9 9 9 9 8 8
10 9 8 6 7 4 3 3 5 4 4 4 4 5 6 6 6 5 3 2 1 1 4 5 7 8 8 8 9 9 9 10 10 10 11 11 10 9 10 10 10 9 8 7
7 10 10 5 3 2 4 5 5 5 6 6 7 7 7 6 6 5 3 2 1 1 2 4 6 8 8 8 7 9 10 10 10 10 9 10 11 10 10 11 11 10 9 7
7 8 7 5 5 5 6 7 7 6 7 8 9 8 8 7 6 6 5 3 2 2 2 3 6 7 9 8 9 11 11 11 10 10 10 10 11 12 11 10 9 8 8 7
8 9 9 8 8 8 8 9 9 10 10 9 9 9 9 7 6 6 5 4 2 2 3 4 4 6 7 9 10 11 12 11 11 11 10 9 8 9 9 9 9 9 8 8
11 11 11 10 8 9 10 10 11 11 11 9 9 10 9 8 6 6 6 4 3 4 5 5 5 6 7 9 11 11 12 11 11 10 10 9 7 6 7 6 9 10 8 8
11 9 9 10 9 9 11 12 12 12 12 10 9 10 10 9 7 6 6 4 4 5 5 5 5 7 8 9 11 13 12 11 9 9 9 9 9 8 9 9 12 12 12 10
11 11 12 13 11 10 12 13 12 12 12 12 11 10 10 9 7 6 6 5 6 5 5 6 6 7 8 9 10 12 12 11 10 10 10 10 9 10 9 10 12 13 14 14
10 10 13 12 12 11 12 13 12 12 11 10 10 10 9 9 7 6 6 5 5 5 6 6 7 8 9 10 10 11 11 11 11 10 10 10 9 9 9 10 9 6 9 14
10 10 12 13 13 12 11 11 12 12 11 11 10 9 9 8 7 7 5 5 5 5 6 7 8 9 9 10 11 12 11 10 9 9 9 9 9 9 9 10 9 8 7 9
11 12 12 13 13 13 12 12 12 12 11 11 10 9 8 7 6 5 4 5 6 7 7 8 8 9 10 11 12 10 10 14 12 10 10 10 9 10 9 9 9 8 8 8
11 12 12 13 13 13 12 12 12 11 11 10 10 8 7 5 5 4 4 4 5 5 6 8 8 8 10 11 12 10 10 12 15 11 9 9 9 9 9 9 9 8 7 8
11 12 13 14 13 13 14 13 11 11 10 9 8 7 6 6 6 4 3 3 3 3 4 6 8 9 10 11 10 10 10 10 10 10 10 9 9 9 9 9 9 9 7 8
12 13 13 14 14 14 14 12 10 9 9 8 7 6 5 5 4 4 4 4 5 5 4 6 11 11 11 12 13 10 11 11 10 9 9 13 11 9 9 9 9 8 8 7
13 13 13 14 13 13 12 10 9 9 7 6 5 5 5 5 5 4 4 3 3 3 5 8 11 10 11 13 14 10 12 12 12 11 10 10 10 9 8 9 9 8 7 7
14 14 13 12 11 10 9 9 8 7 5 5 6 5 5 4 4 5 5 3 2 5 8 10 8 9 10 12 14 11 11 11 11 11 10 10 10 9 9 9 8 8 7 7
13 12 12 11 10 9 7 5 4 4 3 3 4 4 5 5 5 4 3 3 5 8 7 7 7 11 14 15 10 11 11 11 10 9 9 10 10 10 9 9 8 7 7 7
12 11 11 10 9 8 6 4 2 1 2 3 4 5 5 5 4 5 5 4 5 9 7 7 12 19 20 12 10 11 11 11 10 9 9 9 9 9 9 9 8 7 7 6
11 11 10 9 7 5 4 4 3 3 3 4 3 4 5 5 4 4 5 9 11 11 8 12 19 20 17 10 10 10 10 10 10 9 9 9 8 8 8 8 7 7 7 7
10 10 9 8 6 4 4 3 4 5 6 5 6 6 5 4 6 7 7 9 13 13 10 13 18 17 11 9 10 10 10 9 10 10 9 9 9 8 8 7 7 7 6 6
9 7 6 6 5 4 3 3 3 4 4 6 6 6 6 6 8 8 8 10 12 13 10 9 10 11 9 10 10 10 10 11 11 9 9 9 9 8 8 7 8 6 6 5
7 6 5 5 5 4 3 3 4 4 4 6 7 6 7 7 8 9 10 9 9 9 9 8 8 9 9 10 10 10 9 9 9 9 8 8 7 7 7 8 6 6 5 5
Wind_Direction
272 277 271 263 257 251 241 239 245 259 266 274 283 285 289 326 358 55 118 146 157 167 168 164 167 166 168 167 169 169 170 173 177 174 171 169 168 168 167 167 167 166 166 167
278 275 274 269 257 248 248 245 248 261 268 273 272 280 294 305 348 321 173 157 165 174 168 166 170 168 163 168 166 165 168 170 163 161 162 163 163 162 161 162 162 161 164 166
272 280 282 260 245 242 240 240 240 250 262 287 287 298 287 268 178 253 232 168 191 187 182 178 177 171 171 170 162 162 163 161 160 158 159 160 158 158 160 161 157 158 161 162
268 274 249 247 252 250 250 250 247 261 273 280 288 278 272 317 325 285 273 243 225 200 181 173 168 165 164 160 161 159 159 159 159 157 157 156 157 159 158 156 158 159 160 159
250 256 268 268 261 252 246 251 262 269 280 297 302 284 267 317 303 269 263 254 220 207 178 166 163 161 157 159 158 157 160 161 160 158 156 157 159 158 155 152 152 154 156 156
240 249 254 276 293 277 249 249 294 295 287 297 314 281 280 315 311 302 297 298 273 216 168 164 166 159 159 163 163 166 163 159 156 156 157 158 156 152 147 145 144 144 146 151
238 249 262 287 306 319 232 280 328 296 294 304 280 270 288 305 309 299 286 279 239 197 177 175 165 161 166 168 172 163 150 149 151 153 153 150 145 143 141 138 137 138 136 136
229 238 250 299 328 295 287 309 323 322 313 301 296 301 306 311 310 306 301 284 232 211 192 173 167 167 171 173 158 146 144 147 148 147 145 143 141 140 141 141 140 140 136 132
222 239 270 291 288 291 304 311 313 315 315 315 307 303 302 302 302 300 288 263 229 208 197 180 179 175 173 164 147 145 145 146 145 142 141 144 145 145 144 144 145 146 146 145
256 260 272 283 292 300 304 303 307 308 307 305 301 300 298 295 295 299 295 266 232 197 200 195 188 177 166 153 147 147 147 146 145 142 140 139 139 144 148 152 151 151 152 149
262 269 279 274 280 292 300 303 304 304 300 295 293 291 290 286 280 278 285 268 228 204 208 201 183 169 157 151 149 148 146 146 144 141 140 135 129 134 144 153 159 156 157 153
259 266 272 280 285 292 295 295 295 296 297 295 287 285 285 280 269 262 262 254 232 214 209 196 178 167 160 156 154 150 149 149 147 142 137 133 126 105 86 113 127 132 138 141
266 275 276 281 285 286 285 287 288 285 285 288 284 278 275 273 265 251 246 234 220 206 199 190 177 169 165 160 158 157 154 151 147 144 143 141 138 133 122 96 97 113 127 133
282 285 281 281 283 286 284 284 284 281 279 278 278 276 272 271 262 245 238 226 210 196 192 186 177 175 168 159 155 152 148 147 146 146 145 143 141 138 137 135 128 112 118 130
280 279 279 283 282 280 280 282 281 279 279 279 273 269 266 262 256 248 240 214 198 195 192 183 180 176 164 157 154 151 147 146 143 140 138 138 136 133 131 130 130 128 123 126
291 285 280 277 277 277 277 276 274 273 273 272 270 267 262 258 254 247 231 202 190 196 192 183 181 172 161 155 151 147 143 143 142 140 138 137 137 136 136 136 136 139 142 142
293 289 288 286 282 280 278 276 272 270 268 265 262 260 254 247 244 234 226 214 201 201 192 180 174 162 157 156 150 144 140 141 138 136 139 140 140 140 140 140 142 142 143 151
289 287 287 284 281 280 278 275 270 265 262 260 257 251 240 228 225 223 207 177 163 168 178 170 161 155 154 150 144 140 139 140 141 139 137 137 137 136 137 138 140 139 137 143
301 294 290 287 282 276 273 272 269 264 259 252 243 236 228 224 216 202 177 168 168 168 173 154 150 149 146 144 139 135 135 135 133 132 133 136 133 133 135 137 138 139 140 140
306 301 295 290 284 276 272 268 264 259 252 238 226 218 214 210 196 178 163 174 189 166 149 144 142 140 139 138 134 135 136 136 136 135 134 136 136 136 136 136 136 137 139 140
312 310 305 299 295 288 277 270 263 257 247 224 214 207 198 189 173 161 151 151 146 139 139 139 139 138 135 136 132 133 134 135 136 138 138 137 135 135 135 136 136 137 139 138
317 315 312 310 304 300 295 284 265 248 231 211 191 175 164 157 146 135 131 144 139 139 136 136 135 135 135 132 129 130 130 131 132 133 134 136 137 138 138 138 137 138 138 139
317 316 314 313 308 306 311 312 299 216 182 171 163 159 153 148 144 138 128 130 133 129 125 127 132 132 130 124 124 126 128 129 130 131 132 133 133 135 136 137 137 137 138 138
321 321 321 320 320 324 337 356 26 62 89 100 112 126 131 125 103 93 111 121 120 116 112 123 127 127 123 119 121 123 123 124 125 124 124 124 125 127 130 132 133 133 134 135
322 323 326 331 338 346 2 31 58 73 82 82 79 79 83 94 106 109 112 114 114 110 110 115 116 115 112 113 116 118 119 121 123 124 123 125 126 127 128 130 131 132 133 135
327 329 333 340 346 353 6 36 58 71 85 88 81 77 82 89 98 102 104 102 102 104 105 107 107 105 103 105 108 110 112 116 116 115 118 119 121 123 125 126 125 127 129 130
334 340 346 357 7 13 25 47 66 71 81 93 92 85 87 91 95 97 98 99 99 97 95 93 94 96 99 102 103 103 104 106 108 111 113 114 117 119 122 122 122 122 124 128